Zurück zum Katalog

SCOUT G-1 R/B

AktivPO
NORAD 15938·ROCKET BODY·🇺🇸 United States

Gestartet Aug 3, 1985 von Vandenberg Space Force Base

Loading…

Nächste Überflüge (nächste 24 Stunden)

TLE

AktuellSource: Space-Track

Epoche: Sep 14, 2026, 07:51 UTC

1 15938U 85066C   26257.32758909  .00000035  00000-0  45245-4 0  9998
2 15938  90.1588  99.1110 0170759  55.9123 305.8093 13.35467240   557

Verfolge SCOUT G-1 R/B in Echtzeit mit AllMySat

Download on the App Store